MIDAS 5 DEB, 18603

Orbit data source: Space-Track

MIDAS 5 DEB, 18603 is space debris in LEO originally from a launch on Mon, 09 Apr 1962 UTC via an ATLAS AGENA B launch vehicle from the Air Force Western Test Range (AFWTR). Debris objects in space refer to the collection of defunct objects orbiting the Earth. Examples of debris include non-operational satellites, rocket bodies, and fragments generated from explosions, collisions, or faulty payload assembly.

Loading next visibility...
MIDAS 5 DEB details
Identifier
18603, 1962-010G
Orbit
LEO
Last TLE update10 hours ago
Origin
Flag of USUSAF SSD (US)
ManufacturerMIT-LL
MissionSpacecraft
Bus & MotorWESTFORD DRAG, Unknown motor
Mass~1 kg wet, ~1 kg dry
Launch date (UTC)
1962-04-09 (63 years ago)
Launch vehicle
ATLAS AGENA B
Launch site
Air Force Western Test Range (AFWTR)
Object type
Payload
Rocket body
Debris
Shape & HBRCyl, 0.5 m
Radar Cross Section0.094 m², Medium (>0.1 m² and < 1m²)

Expand to show TLE details & history

TLE from 10 hours ago
0 MIDAS 5 DEB
1 18603U 62010G   24356.15113707  .00000063  00000-0  12043-1 0  9992
2 18603  86.6768  44.5199 0284799   8.6915  16.1911  9.41008855327743
Epoch: 2024-12-21T03:37Z
Definitive object data (Epoch: 2024-12-21T03:37:38.242Z)
Latitude25.80263°
Longitude-98.49402°
Altitude2,842.953 km
Speed6.666 km/s
True Right ascension03h 04m 29s
True Declination25° 41' 55"
Sunlit
Object was in full shadow at TLE epoch
Visualization TLE readout
Latitude58.52323°
Longitude-94.73952°
Altitude2,932.306 km
Speed6.609 km/s
Apparent Right ascension02h 12m 12s
Apparent Declination22° 21' 19"
Sunlit
Object is in daylight
Visualization observer readout
Local Sidereal Time13:05:19
Azimuth342.808° N
Elevation-25.804°
Doppler factor1
Orbital elements
Apogee altitude3,366.446 km
Perigee altitude2,826.766 km
Semi-major axis9,474.743 km
Eccentricity0.0284799
Inclination86.6768°
RAAN44.5199°
Arg. of periapsis8.6915°
True anomaly17.13324°
Mean anomaly16.1911°
Eccentric anomaly16.65889°
Mean motion2.35338 °/min
BSTAR0.012043
Orbital period152.97 mins
Loading maneuver chart data...
Loading historical data...
Loading historical data...
Loading historical data...
Loading historical data...
Loading historical data...
Loading historical data...
Loading historical data...

MIDAS 5 DEB Visibility forecast

Observer location: undefined°, undefined

Span
Click to sort rows by Start time (UTC) header in descending order
Start Az.
Max El. time (UTC)
Max El. Az.
Max El.
End time (UTC)
End Az.
33 mins2024-12-21 14:21:15.199Z2.733° NNE2024-12-21 14:37:15.199Z78.295° E39.318°2024-12-21 14:54:15.199Z155.576° SSE
29 mins2024-12-21 16:56:15.199Z347.472° N2024-12-21 17:10:15.199Z282.579° WNW35.894°2024-12-21 17:25:15.199Z218.887° SW
25 mins2024-12-22 02:30:15.199Z138.69° SSE2024-12-22 02:42:15.199Z72.704° E35.214°2024-12-22 02:55:15.199Z11.707° NNE
27 mins2024-12-22 05:02:15.199Z211.288° SW2024-12-22 05:14:15.199Z276.671° WNW37.724°2024-12-22 05:29:15.199Z356° N
27 mins2024-12-22 13:21:15.199Z13.416° NNE2024-12-22 13:34:15.199Z72.104° E28.451°2024-12-22 13:48:15.199Z128.39° SE
|